Grand Rapids, MI

4:10 AM EDT on October 17, 2017 (GMT -0400)
Gerald R. Ford International

Weather History for KGRR - September, 2013

Change the Weather History Date:

Wednesday, September 4, 2013

  Actual Average Record
Temperature  
Mean Temperature 70 °F 67 °F  
Max Temperature 82 °F 77 °F 94 °F (1898)
Min Temperature 57 °F 57 °F 38 °F (1974)
Degree Days  
Heating Degree Days 0 2  
Month to date heating degree days 0 6  
Since 1 July heating degree days 26 26  
Cooling Degree Days 5 4  
Month to date cooling degree days 19 16  
Year to date cooling degree days 689 641  
Growing Degree Days 20 (Base 50)    
Moisture  
Dew Point 57 °F    
Average Humidity 68    
Maximum Humidity 93    
Minimum Humidity 42    
Precipitation  
Precipitation 0.00 in 0.14 in 2.82 in (2008)
Month to date precipitation T 0.54  
Year to date precipitation 32.32 25.26  
Snow  
Snow 0.00 in 0.00 in 0.00 in ()
Month to date snowfall 0.0 0.0  
Since 1 July snowfall 0.0 0.0  
Since 1 September snowfall 0.0 0.0  
Snow Depth 0.00 in    
Sea Level Pressure  
Sea Level Pressure 30.07 in    
Wind  
Wind Speed 10 mph (WSW)    
Max Wind Speed 21 mph    
Max Gust Speed 24 mph    
Visibility 10 miles    
Events      
T = Trace of Precipitation, MM = Missing Value Source: NWS Daily Summary

Daily Weather History Graph

Daily Weather History Graph

Search for Another Location

Airport or City:

Trip Planner

Search our weather history database for the weather conditions in past years. The results will help you decide how hot, cold, wet, or windy it might be!

Date:

Astronomy

Sep. 04, 2013 Rise Set
Actual Time 7:10 AM EDT 8:11 PM EDT
Civil Twilight 6:41 AM EDT 8:39 PM EDT
Nautical Twilight 6:06 AM EDT 9:14 PM EDT
Astronomical Twilight 5:30 AM EDT 9:50 PM EDT
Moon 6:21 AM EDT (9/4) 7:29 PM EDT (9/4)
Length of Visible Light 13h 58m
Length of Day
13h 00m
Waning Crescent, 1% of the Moon is Illuminated
Sep 4
Waning Crescent
Sep 5
New
Sep 12
First Quarter
Sep 19
Full
Sep 26
Last Quarter

Hourly Weather History & Observations

Time (EDT) Temp. Heat Index Dew Point Humidity Pressure Visibility Wind Dir Wind Speed Gust Speed Precip Events Conditions
12:53 AM 57.9 °F - 53.1 °F 84% 30.04 in 10.0 mi WSW 5.8 mph - N/A   Clear
1:53 AM 57.9 °F - 54.0 °F 87% 30.04 in 10.0 mi SW 4.6 mph - N/A   Clear
2:53 AM 57.0 °F - 54.0 °F 89% 30.04 in 10.0 mi SSW 4.6 mph - N/A   Clear
3:53 AM 57.9 °F - 55.0 °F 90% 30.04 in 10.0 mi SW 5.8 mph - N/A   Clear
4:53 AM 57.9 °F - 55.0 °F 90% 30.05 in 10.0 mi SSW 5.8 mph - N/A   Clear
5:53 AM 57.9 °F - 55.0 °F 90% 30.05 in 10.0 mi SSW 6.9 mph - N/A   Clear
6:53 AM 57.9 °F - 55.0 °F 90% 30.07 in 10.0 mi SSW 3.5 mph - N/A   Clear
7:53 AM 59.0 °F - 55.9 °F 90% 30.08 in 8.0 mi SSW 5.8 mph - N/A   Clear
8:53 AM 63.0 °F - 57.9 °F 84% 30.08 in 9.0 mi SW 6.9 mph - N/A   Clear
9:53 AM 69.1 °F - 59.0 °F 70% 30.08 in 10.0 mi West 12.7 mph - N/A   Clear
10:53 AM 73.9 °F - 59.0 °F 59% 30.08 in 10.0 mi West 12.7 mph - N/A   Partly Cloudy
11:53 AM 77.0 °F - 57.9 °F 52% 30.08 in 10.0 mi WSW 16.1 mph - N/A   Scattered Clouds
12:53 PM 79.0 °F - 55.9 °F 45% 30.09 in 10.0 mi WNW 13.8 mph 21.9 mph N/A   Scattered Clouds
1:53 PM 80.1 °F 80.2 °F 55.9 °F 43% 30.08 in 10.0 mi WSW 12.7 mph 20.7 mph N/A   Scattered Clouds
2:53 PM 81.0 °F 81.0 °F 57.0 °F 44% 30.07 in 10.0 mi West 10.4 mph - N/A   Mostly Cloudy
3:53 PM 81.0 °F 81.1 °F 57.9 °F 45% 30.06 in 10.0 mi WSW 15.0 mph - N/A   Mostly Cloudy
4:53 PM 79.0 °F - 60.1 °F 52% 30.06 in 10.0 mi WSW 16.1 mph - N/A   Mostly Cloudy
5:53 PM 77.0 °F - 60.1 °F 56% 30.06 in 10.0 mi West 15.0 mph 20.7 mph N/A   Mostly Cloudy
6:53 PM 75.9 °F - 60.1 °F 58% 30.07 in 10.0 mi WNW 16.1 mph - N/A   Scattered Clouds
7:53 PM 72.0 °F - 60.1 °F 66% 30.08 in 10.0 mi WNW 9.2 mph - N/A   Scattered Clouds
8:53 PM 70.0 °F - 59.0 °F 68% 30.09 in 10.0 mi West 9.2 mph - N/A   Scattered Clouds
9:53 PM 69.1 °F - 59.0 °F 70% 30.10 in 10.0 mi West 6.9 mph - N/A   Partly Cloudy
10:53 PM 68.0 °F - 60.1 °F 76% 30.12 in 10.0 mi WNW 4.6 mph - N/A   Scattered Clouds
11:53 PM 68.0 °F - 60.1 °F 76% 30.12 in 10.0 mi NW 5.8 mph - N/A   Scattered Clouds